Presure
141 159 166 154 167 168 159 150 161 172 157 160 181 152 156 150 152 178 172 164 186 201 223 208 199 196 184 179 200 189 183 175 181 171 181 182 183 187 189 188 174 177 172 171 178 187 185
145 161 168 142 159 164 159 146 154 163 161 157 172 181 155 163 169 184 175 201 182 178 231 216 204 200 191 189 193 195 181 184 177 172 167 165 178 182 182 182 180 186 183 177 177 176 176
152 141 159 135 151 168 154 133 159 146 160 147 174 161 151 141 174 177 185 165 196 163 176 227 215 208 198 199 193 189 178 178 182 179 175 170 170 172 176 185 192 190 198 201 200 183 175
144 141 147 150 135 159 153 142 134 159 160 163 147 165 165 148 178 139 174 154 201 177 180 177 223 210 201 195 196 194 194 189 180 178 178 178 176 171 179 188 190 197 195 201 194 191 190
145 152 142 154 148 153 132 150 141 158 167 148 168 152 169 187 163 137 153 174 148 174 195 182 209 224 209 200 196 191 191 187 183 184 178 175 173 173 176 171 172 179 183 181 183 188 190
134 149 146 147 149 155 162 161 157 156 146 162 164 152 141 158 170 149 173 158 159 160 175 187 179 188 225 204 198 201 199 197 194 199 188 179 176 164 166 167 170 166 174 175 174 180 178
143 153 133 153 137 150 163 166 131 158 159 166 145 164 165 151 151 177 146 173 174 184 145 190 169 172 189 228 211 211 217 218 207 206 187 182 180 176 172 181 179 164 178 170 169 170 177
140 138 131 152 159 158 157 166 164 133 137 152 159 164 161 160 140 161 164 169 167 182 174 163 170 181 168 189 225 213 203 206 203 197 192 192 189 182 182 177 175 172 170 168 173 169 170
134 134 154 127 143 155 163 155 162 159 157 149 138 153 147 160 176 151 160 156 161 168 163 199 183 190 173 182 219 220 213 206 200 199 195 192 190 186 184 184 184 183 179 184 173 179 179
146 124 153 132 153 151 154 155 154 147 150 157 150 152 171 171 175 168 162 158 161 171 171 147 198 191 161 183 184 190 220 213 208 202 195 196 141 198 196 194 193 199 199 206 198 192 189
154 138 148 125 122 152 151 156 146 154 148 139 147 145 163 164 151 157 171 169 176 164 178 184 193 190 185 162 179 183 223 217 204 201 217 217 215 212 210 193 175 183 191 195 201 203 195
155 148 160 158 147 151 155 158 146 155 162 136 155 131 162 147 148 154 165 157 171 179 163 185 166 193 148 187 173 181 182 218 222 202 198 201 206 205 202 201 195 194 194 197 198 190 186
153 149 156 163 148 128 150 153 141 161 160 155 149 145 163 148 168 162 162 142 173 163 175 166 177 181 195 189 173 177 190 220 212 205 204 193 184 198 195 194 198 202 202 202 201 195 190
160 152 152 148 152 162 160 153 152 157 156 143 152 166 176 169 179 159 146 167 171 163 178 178 154 164 191 180 188 173 197 193 209 212 203 205 191 194 191 188 175 193 197 196 198 200 196
164 166 151 166 166 160 157 172 144 150 166 159 164 163 171 162 169 172 160 165 154 171 165 170 173 186 182 177 178 177 179 191 207 207 206 206 198 197 186 194 199 200 195 201 192 189 193
138 162 148 142 160 168 172 156 164 149 161 154 159 153 163 162 149 175 163 158 161 158 175 177 173 170 180 183 192 174 181 209 222 204 201 205 204 186 197 195 189 185 193 200 197 187 204
152 142 170 147 163 155 146 160 157 142 158 162 166 146 169 170 156 158 168 173 167 163 157 162 171 175 159 183 168 184 187 203 217 206 200 201 209 194 190 194 186 185 195 193 191 198 208
160 161 163 171 179 179 169 169 169 179 172 166 167 169 162 140 148 158 151 171 154 159 164 171 167 177 159 133 177 177 195 204 218 206 206 199 205 193 193 201 191 193 185 193 195 210 206
171 154 140 163 162 144 161 155 164 165 169 151 169 169 163 167 173 156 160 156 151 163 165 165 163 177 168 174 176 184 205 187 219 208 199 205 199 188 198 193 187 189 188 196 202 205 208
187 176 162 146 168 167 176 169 171 151 167 174 168 164 172 160 161 163 175 166 171 174 167 174 177 177 182 182 181 187 203 214 218 204 207 204 195 200 199 184 188 195 193 196 204 192 205
163 193 163 168 166 151 160 162 150 168 151 181 166 166 165 137 168 162 172 174 178 162 152 182 185 145 169 175 188 231 214 210 213 208 208 203 199 197 190 192 190 195 194 198 197 206 190
171 171 173 196 139 169 180 172 175 172 186 159 181 165 173 181 175 186 178 150 185 165 183 188 169 174 180 178 205 223 213 220 205 209 211 207 191 189 194 189 194 196 189 202 194 196 185
182 166 162 178 185 185 174 180 181 181 184 190 175 171 171 179 155 171 175 180 175 172 164 179 170 185 196 225 228 224 225 211 205 208 208 200 195 194 192 192 196 190 194 199 204 183 195
184 186 179 195 194 197 194 177 186 175 179 189 175 176 161 182 178 180 180 181 170 165 180 190 178 208 211 236 234 221 221 209 209 213 196 196 189 189 192 195 196 189 200 194 190 179 186
186 199 197 174 157 177 189 175 188 174 190 181 184 172 182 183 199 165 163 171 207 159 194 197 225 241 244 226 222 227 214 217 215 205 185 189 190 192 193 197 191 196 194 202 181 190 192
199 161 186 194 188 178 175 181 181 181 176 179 185 201 173 167 165 194 173 135 196 209 238 230 228 224 232 210 236 233 219 214 204 192 191 188 188 194 200 191 195 189 200 186 201 186 203
184 183 169 193 185 179 166 188 183 155 193 182 183 180 177 142 134 170 208 208 259 247 236 228 226 222 229 234 235 226 214 205 193 200 189 190 193 199 186 195 188 197 197 202 186 204 209
204 224 182 173 205 210 173 216 209 199 168 210 169 194 137 154 220 232 258 250 245 239 231 232 256 251 245 234 221 213 199 193 199 191 191 198 194 184 188 194 193 183 200 188 200 211 219
220 256 200 183 217 208 180 162 202 181 196 146 146 176 137 273 259 159 254 249 241 238 237 245 249 241 230 226 215 200 195 192 188 194 195 192 185 190 190 192 193 205 192 195 211 223 219
Wind_Speed
25 29 31 28 35 36 25 22 27 41 26 27 47 25 22 31 29 53 38 27 47 34 23 27 27 29 26 24 22 20 19 21 19 21 17 18 20 23 26 31 39 40 43 46 45 43 47
28 30 33 28 33 36 26 27 20 37 29 37 42 52 23 27 36 60 45 57 46 45 22 26 27 28 29 29 23 20 22 22 23 24 24 24 23 26 28 33 36 37 43 48 49 51 53
28 29 30 31 32 39 31 30 35 30 35 31 47 24 35 33 49 51 56 29 54 25 41 22 26 26 28 27 25 23 26 28 28 28 27 28 28 28 27 29 34 37 38 39 43 53 56
32 33 32 32 31 38 34 28 31 31 32 32 33 43 40 32 51 34 50 32 51 44 44 39 25 26 26 25 28 29 27 30 31 31 31 30 30 30 30 32 32 35 36 38 39 43 48
35 35 34 33 35 36 32 36 34 38 45 27 48 37 43 53 41 37 31 47 34 42 59 47 36 25 28 29 27 29 30 31 34 36 35 34 31 31 32 32 33 35 37 38 40 43 44
37 38 38 36 38 41 44 45 40 36 31 44 45 41 35 37 49 35 50 40 36 40 39 51 39 42 26 32 33 32 33 34 35 37 38 38 36 37 38 38 39 41 41 42 44 46 48
44 43 33 43 38 39 48 46 33 44 42 48 31 53 53 36 31 54 40 57 55 66 35 49 33 38 38 28 32 33 34 34 35 36 40 41 41 42 42 44 44 47 45 48 49 51 53
46 43 38 45 48 48 45 49 49 38 39 36 47 57 52 48 41 44 45 54 47 66 42 42 38 42 39 45 32 34 36 36 36 38 41 43 45 46 47 46 47 48 50 52 52 55 57
44 42 48 42 45 49 51 48 51 49 49 36 41 43 39 52 61 37 41 37 45 52 38 62 54 47 39 44 34 34 36 39 38 41 43 44 47 49 50 52 54 56 56 59 57 59 61
52 42 52 44 49 47 50 52 51 50 42 52 45 47 68 69 58 58 51 43 43 61 60 48 62 54 39 44 45 40 36 39 41 43 45 47 47 53 55 57 58 58 61 58 61 64 66
62 53 52 45 41 51 49 57 42 54 45 48 45 42 66 58 38 43 66 66 71 53 70 73 65 61 51 41 45 48 35 38 41 43 44 46 47 49 52 53 53 56 58 62 63 64 67
66 54 61 60 52 55 58 57 46 59 67 49 57 46 63 41 42 40 61 43 69 68 52 74 56 67 49 59 43 55 55 37 39 42 45 44 46 49 52 55 58 61 63 64 65 66 69
64 57 61 66 52 49 54 58 49 66 69 61 50 49 71 46 70 66 59 51 72 58 70 55 68 72 71 65 48 55 64 39 40 41 44 47 49 49 50 53 57 60 64 66 64 67 70
75 69 65 56 58 66 68 63 64 67 66 51 56 76 79 73 75 56 54 74 74 58 75 78 51 53 77 62 67 57 68 57 47 42 45 47 50 52 54 56 61 61 64 68 68 68 70
76 77 68 77 77 69 67 74 55 59 77 70 77 75 79 69 81 80 60 74 56 76 66 75 80 81 75 67 65 64 64 64 52 48 50 48 50 53 58 59 60 61 66 67 70 70 72
61 80 60 59 73 79 80 70 77 59 68 68 76 65 73 71 54 78 75 65 69 62 85 87 80 72 74 84 84 64 70 62 50 52 53 55 53 57 59 61 62 66 68 71 72 75 78
73 68 92 73 83 66 58 79 70 59 68 77 77 67 86 83 70 75 87 86 84 76 72 69 84 86 59 86 61 81 83 74 53 54 57 60 58 59 63 65 66 69 74 74 76 82 84
93 89 91 92 91 91 91 92 89 85 87 79 84 86 83 65 56 76 63 91 68 74 79 92 82 95 61 59 82 73 86 58 56 58 57 63 61 63 67 69 71 73 75 79 82 90 85
102 80 71 91 90 63 87 82 95 97 92 70 90 88 81 85 93 70 78 76 72 91 89 83 80 97 83 82 84 87 86 81 61 60 63 64 64 67 70 70 72 77 79 84 90 88 89
93 95 95 69 99 106 100 97 101 70 91 100 89 81 91 77 82 86 95 90 92 93 85 95 99 101 94 94 91 90 89 68 65 68 66 66 68 74 73 74 77 82 84 88 91 85 87
106 96 96 102 105 77 92 95 75 83 78 95 86 77 85 68 87 84 97 100 101 76 66 95 96 60 84 90 90 67 73 70 68 70 69 69 71 75 75 78 80 83 87 92 91 94 89
116 116 110 102 70 106 106 106 107 100 98 76 92 78 96 97 92 93 95 73 102 89 107 100 84 91 97 96 91 72 72 68 73 72 72 72 71 75 76 79 83 84 92 96 93 93 93
115 105 82 104 104 110 92 105 103 100 99 94 87 92 82 93 73 89 95 100 92 92 83 103 90 100 95 83 75 70 69 71 74 75 73 74 76 78 77 82 84 84 97 99 97 95 102
117 109 105 100 102 95 97 83 98 88 96 91 93 93 71 93 99 100 95 108 92 84 101 107 96 86 92 77 72 75 68 73 76 74 74 75 81 81 81 85 83 86 97 96 95 98 104
111 106 98 101 75 99 96 97 94 92 91 94 96 86 91 95 97 82 80 91 102 75 107 101 87 74 69 76 77 72 71 74 72 70 76 80 84 85 85 87 86 94 94 99 94 100 109
106 74 110 100 101 102 97 102 100 96 95 93 99 98 91 81 79 104 89 56 106 102 87 88 83 80 75 77 77 73 73 69 67 72 78 82 85 88 91 89 90 93 100 96 106 101 112
112 113 81 103 91 98 77 104 107 74 96 95 99 100 95 47 49 78 101 109 80 79 80 84 80 80 79 79 72 68 64 65 71 75 80 84 86 89 91 95 91 102 103 110 105 115 116
110 103 105 80 104 99 76 105 105 107 84 108 80 93 47 69 110 100 80 79 77 76 80 78 74 71 72 70 65 61 65 71 72 77 82 86 86 88 95 100 97 97 110 106 116 120 125
96 94 113 100 108 105 84 70 113 90 120 53 51 93 51 77 76 66 73 72 69 71 74 72 70 70 67 66 59 65 70 73 77 79 83 85 89 94 99 101 104 115 109 114 122 128 123
Wind_Direction
284 306 318 310 324 327 318 301 332 342 328 338 349 319 339 322 327 356 7 355 8 1 309 304 301 297 298 301 287 276 274 268 267 270 265 260 262 264 267 264 252 252 244 240 240 243 239
284 308 319 287 323 325 312 294 303 326 334 325 353 350 323 339 353 353 3 357 5 8 323 312 304 298 300 296 287 271 274 267 267 265 264 264 261 261 260 259 258 259 256 251 250 245 241
291 279 312 282 309 321 312 300 326 292 324 299 343 336 324 314 345 354 358 2 357 340 4 326 311 301 297 294 287 280 280 277 268 266 265 262 261 262 265 273 271 265 268 268 264 257 251
274 278 289 293 281 316 310 297 296 318 321 335 306 341 337 309 344 315 354 324 354 353 358 355 327 309 305 298 295 287 281 273 274 273 270 267 268 269 274 275 274 271 268 269 263 259 260
273 286 280 299 295 307 288 305 296 316 326 296 330 311 340 336 339 311 318 353 321 350 353 355 345 311 303 299 289 285 282 278 274 271 271 271 270 268 270 266 266 268 263 259 259 258 257
272 286 278 283 300 306 311 310 315 312 295 323 328 316 301 339 339 310 344 325 323 333 351 352 354 351 303 299 296 288 284 283 279 274 271 271 270 268 269 268 265 263 263 262 262 265 260
270 284 280 292 283 299 307 305 290 312 314 319 292 327 328 317 318 336 311 345 340 349 310 351 332 335 349 302 293 287 282 282 280 273 272 273 273 271 270 271 268 265 267 263 261 261 266
267 273 275 288 295 301 304 301 303 293 292 309 319 323 324 325 300 324 335 343 339 345 336 317 326 338 334 347 301 295 291 285 282 278 276 276 274 274 275 273 272 270 267 265 269 265 268
268 270 284 278 288 294 296 298 299 303 305 302 290 312 308 318 322 312 326 318 326 335 326 340 335 340 333 337 316 296 292 288 286 282 280 279 277 278 277 276 277 278 277 277 272 275 276
271 262 284 276 288 288 294 295 298 297 298 308 307 309 312 318 318 324 331 324 319 335 334 316 334 335 310 338 343 328 295 290 286 284 285 283 288 279 278 278 278 280 281 282 279 279 280
275 269 277 267 269 287 289 295 284 298 290 288 297 299 312 317 305 316 323 328 329 321 333 334 334 333 333 309 336 333 303 294 289 288 288 287 286 285 284 281 277 280 283 283 284 283 282
274 269 279 279 282 286 289 293 285 296 298 282 305 290 309 296 299 310 323 313 326 327 321 332 326 330 302 331 323 333 329 304 292 287 289 291 291 289 287 286 285 286 286 286 286 284 285
273 271 277 279 280 270 285 289 279 294 298 295 293 295 306 295 311 311 318 292 321 321 327 320 322 333 328 326 320 327 330 305 304 293 292 289 290 289 289 288 289 289 289 288 289 289 289
270 270 272 276 282 285 285 287 292 294 296 283 293 300 302 305 305 311 292 317 320 315 322 325 304 315 325 321 324 320 328 319 308 299 292 290 290 291 289 290 290 291 292 293 292 294 295
269 271 271 278 282 280 284 289 277 289 290 296 298 301 302 305 308 310 306 315 302 319 315 321 321 322 323 321 320 320 320 318 308 301 296 293 291 290 289 291 293 294 295 296 295 296 298
258 273 265 267 283 284 284 286 287 282 285 289 298 293 300 303 291 306 311 310 313 308 317 317 318 314 315 319 319 315 318 312 293 300 300 297 294 290 295 294 295 296 299 300 300 296 302
268 260 273 272 280 278 275 286 287 271 283 291 290 289 295 298 300 303 306 308 310 311 306 309 314 317 299 315 311 317 317 315 296 300 300 301 300 294 296 296 297 299 302 301 300 303 308
269 273 274 274 276 277 281 284 286 285 287 289 291 292 296 283 291 303 296 305 299 305 309 312 310 312 299 289 313 311 316 296 294 302 296 300 300 297 298 299 300 302 301 304 303 308 309
264 269 261 276 276 262 282 280 283 286 286 278 289 291 293 295 297 293 299 298 295 304 305 306 304 308 306 309 310 311 313 312 294 302 301 298 299 298 298 301 302 303 304 306 306 310 312
266 265 270 261 274 276 277 280 280 275 283 285 288 289 290 291 289 298 295 297 299 301 302 303 303 304 303 307 309 311 309 301 294 302 297 297 297 297 299 302 303 305 307 306 309 304 312
266 265 271 271 273 266 277 281 271 275 280 281 286 281 289 282 294 294 294 295 296 293 287 303 301 291 301 305 306 292 300 299 293 297 295 295 296 298 300 302 304 307 308 307 308 313 308
263 266 270 262 262 274 273 277 280 283 281 280 281 288 289 290 292 289 292 285 293 293 298 298 299 299 302 303 300 291 295 288 297 294 293 294 298 298 301 303 306 310 305 310 308 310 308
260 263 263 268 267 267 272 272 276 277 279 279 281 284 285 288 281 290 295 293 290 293 294 296 297 299 297 291 286 284 282 289 293 293 293 295 297 298 302 304 307 309 308 309 312 308 312
260 260 265 263 264 266 269 271 271 274 278 275 281 283 278 286 286 289 287 292 290 291 293 292 296 290 294 280 281 288 284 287 287 290 294 296 297 300 304 304 309 308 307 308 309 307 310
257 255 259 269 259 270 265 272 270 276 274 280 278 279 283 284 284 284 282 289 290 289 290 291 286 279 276 284 287 280 284 282 287 291 296 295 297 301 304 305 309 308 307 311 306 312 310
253 262 260 259 259 268 272 269 273 276 281 280 279 277 283 281 283 283 288 287 289 288 284 284 285 286 279 288 279 277 280 285 289 292 293 296 300 302 304 307 309 307 311 307 312 310 313
260 260 266 261 259 266 271 268 271 263 272 273 276 282 284 284 282 285 285 287 278 278 279 278 280 283 281 276 276 279 285 286 290 291 295 298 300 304 304 307 309 311 313 312 310 312 313
252 258 263 266 259 266 275 266 267 267 278 274 277 277 279 286 283 283 277 277 276 278 275 279 271 270 267 274 280 283 285 289 290 295 297 298 303 304 306 308 311 309 313 310 310 313 315
259 271 255 264 261 258 265 264 265 275 269 277 281 279 276 274 276 286 275 276 277 276 277 275 270 272 275 276 281 282 286 290 295 296 299 303 303 305 306 310 311 313 310 309 312 314 315